Погода во Фрайберге

Германия     50°54′52″N   13°20′26″E
темп.,
°C
ветер,
м/с
пор.,
м/с
влажн.,
%
обл.,
%
осадки,
мм/ч
давл.,
гПа
погр.,
м
17 апреля, сб
сб1723:000зюз229330 0.0 102422
02:00−1зюз229499 0.0 102428
05:000з2597100 0.1 1023184
08:000зсз35100100 1.3 1023227
11:00+1зсз23100100 0.8 1023216
14:00+2сз23100100 0.9 1023182
17:00+2з12100100 0.1 1022142
20:00+2юз2399100 0.1 1022127
18 апреля, вс
вс1823:00+2юз24100100 0.9 1021132
02:00+2юз3699100 1.1 1021175
05:00+3юз25100100 0.1 1020159
08:00+3юз1299100 0.3 1020102
11:00+5св1295100 0.0 1020303
14:00+9всв3479100 0.3 1020915
17:00+9в2379100 0.3 1019655
20:00+6юв0090100 0.4 101910
19 апреля, пн
пн1923:00+5ююз1192100 0.0 102010
02:00+5зюз0093100 0.0 101910
05:00+5св1196100 0.0 101910
08:00+6св1293100 0.0 1019123
11:00+7ссз1292100 0.4 1018179
14:00+9св2485100 0.8 1017604
17:00+11в587788 0.8 1016700
20:00+7в228714 1.3 101618
20 апреля, вт
вт2023:00+5ююв00889 0.0 101610
02:00+4ссв119129 0.0 101610
05:00+3св119557 0.0 101610
08:00+6всв129183 0.0 1016164
11:00+10св347795 0.5 1015770
14:00+11св4469100 1.0 10141003
17:00+12ссв236212 0.2 10131178
20:00+7св22873 0.3 101313
21 апреля, ср
ср2123:00+5ю21875 0.0 101310
02:00+4ююз22905 0.0 101316
05:00+3ююз22915 0.0 101321
08:00+6юз35845 0.0 1012163
11:00+12з456316 0.6 1011903
14:00+13з565525 0.9 10101659
17:00+11з5777100 1.3 10101118
20:00+5зсз61293100 3.2 1012703